Theta_e
319 319 319 319 319 319 319 320 319 319 319 319 319 319 320 320 320 320 321 321 321 321 321 322 323 324 319 310 317 345 356 353 334 333 336 340 336 329 327 324 326 323 326 327 327 329 329
319 319 319 319 319 319 319 319 319 319 319 319 319 319 319 319 319 319 319 320 320 320 321 322 323 324 313 305 327 339 328 327 328 333 338 337 337 336 334 327 326 329 327 329 331 329 329
319 319 319 319 318 319 319 319 319 319 319 319 318 318 318 318 318 318 319 319 319 320 321 322 323 323 311 308 323 329 328 326 331 334 338 342 343 335 334 327 335 331 323 323 324 328 326
319 319 319 318 318 318 318 318 318 319 318 318 318 318 318 318 318 317 316 316 318 320 321 323 324 319 305 317 327 333 333 332 337 333 339 338 342 336 334 332 325 321 319 313 321 324 324
318 318 318 318 318 318 318 318 318 318 318 318 318 318 318 317 317 316 315 316 318 321 322 325 316 308 307 325 321 327 334 331 331 332 335 342 336 327 325 317 312 314 310 312 316 324 323
318 318 318 318 318 318 318 318 318 318 318 318 317 317 317 317 317 315 314 315 318 321 322 323 320 304 310 314 317 326 330 332 324 322 322 322 320 314 316 311 303 308 309 312 313 318 320
318 318 318 318 318 318 317 317 317 317 318 318 317 317 316 316 316 314 310 302 304 303 310 303 304 306 311 315 317 318 327 327 325 321 312 316 312 309 312 314 315 313 312 313 318 322 317
318 318 317 318 317 317 317 317 317 317 317 317 317 316 316 315 314 313 305 299 304 304 300 307 308 308 311 312 309 311 326 316 317 312 313 311 311 318 318 316 314 313 311 312 316 317 315
317 317 317 317 317 317 317 317 317 317 317 316 316 315 315 314 313 305 302 304 306 302 299 304 306 306 308 311 308 310 319 316 315 312 311 308 315 321 315 310 307 311 311 311 309 310 309
317 317 317 317 317 317 317 316 316 316 316 315 315 315 314 311 303 302 301 306 306 304 294 298 301 306 309 310 307 314 319 318 313 311 311 309 314 315 309 309 307 303 312 313 309 304 300
316 316 317 317 317 317 316 316 316 316 315 315 315 314 312 311 301 302 303 307 305 304 289 304 301 310 306 308 309 311 319 316 312 311 309 308 310 308 307 308 310 307 310 307 306 301 299
316 316 316 316 316 316 316 315 315 315 314 314 313 312 311 306 300 306 307 304 304 294 290 301 302 302 303 303 306 308 313 316 315 310 308 309 312 310 310 312 312 311 306 303 299 298 294
316 316 316 316 316 316 315 314 314 314 313 312 312 311 309 309 302 304 304 303 292 288 301 300 295 299 299 301 303 305 305 304 303 298 297 304 306 308 312 306 307 305 298 293 294 293 293
316 316 316 316 316 315 315 313 313 313 312 311 310 309 307 308 305 304 303 299 288 294 298 303 300 297 300 301 301 301 301 300 300 302 298 298 298 303 309 307 304 301 299 294 289 290 294
316 316 316 316 315 315 313 313 312 311 310 310 308 301 302 305 308 303 301 290 290 295 301 298 298 295 294 298 299 299 298 297 301 303 298 296 298 306 308 307 306 300 297 299 293 288 291
315 315 316 315 315 313 312 312 312 311 310 309 299 301 305 308 308 300 296 290 293 300 299 297 293 296 294 295 295 294 295 299 300 305 304 300 296 302 307 306 305 301 303 296 293 290 287
315 314 315 314 314 313 312 312 311 311 309 309 298 301 305 306 298 296 290 289 294 300 299 295 294 293 295 297 296 293 294 299 301 298 302 299 298 300 301 298 299 297 296 293 294 292 290
315 312 313 314 312 312 312 312 311 309 309 303 293 298 306 298 291 286 288 292 298 296 297 297 296 296 295 297 296 295 296 299 304 302 299 298 295 294 297 300 301 298 297 295 293 291 288
315 314 313 313 312 312 312 312 310 309 309 304 293 295 308 300 291 289 291 295 296 297 297 294 295 298 298 296 293 297 299 303 306 303 300 298 292 290 295 296 298 297 298 294 294 292 290
315 315 315 312 312 312 313 312 310 309 310 302 297 299 301 297 293 294 295 295 297 301 299 298 297 296 295 293 293 296 297 303 307 308 321 307 292 294 292 294 297 296 299 298 296 293 292
315 315 315 314 312 311 312 312 311 310 309 301 300 298 297 294 295 297 299 298 298 299 301 297 293 295 295 292 292 293 298 302 306 312 302 299 295 293 295 297 298 298 299 300 298 297 297
314 314 313 313 313 313 312 312 312 310 308 300 298 298 299 295 297 298 296 296 299 300 299 298 297 301 296 293 296 295 301 300 300 302 301 298 295 296 294 301 299 300 302 303 304 301 301
313 313 313 313 313 313 312 312 312 310 305 295 296 299 299 295 296 296 296 299 301 301 302 303 301 301 296 297 300 303 303 303 304 302 299 298 295 293 291 296 297 294 300 304 309 309 304
312 312 313 313 312 312 312 312 312 310 309 303 296 296 295 292 295 298 300 301 301 300 298 303 303 301 304 306 304 302 300 299 300 303 299 295 294 293 292 292 288 297 309 313 310 311 312
312 312 312 313 313 313 312 312 312 310 310 304 300 297 295 290 294 296 298 298 299 298 298 301 304 303 301 301 298 295 295 297 298 299 296 297 294 292 290 289 294 306 310 308 307 306 315
312 312 312 313 313 313 313 312 312 311 309 306 300 298 297 293 290 298 296 297 294 293 297 300 304 303 302 297 296 292 292 292 293 296 294 293 294 295 288 288 289 299 309 314 311 300 314
311 311 311 311 312 313 313 313 313 312 310 306 300 299 298 295 298 296 295 295 297 295 294 295 300 301 300 295 293 291 292 295 292 291 293 294 294 291 290 290 297 307 311 314 301 301 314
310 310 310 310 311 311 312 312 312 311 311 307 301 301 299 295 297 303 303 298 297 295 293 296 296 297 299 293 292 292 291 293 293 293 296 295 294 294 292 293 294 309 308 304 306 311 315
310 310 310 310 310 310 311 311 312 311 311 307 295 300 302 296 296 303 305 307 306 302 299 296 295 295 300 297 296 295 296 293 292 291 296 294 299 299 300 299 305 307 307 310 309 309 311
Wind_Speed
15 15 15 16 15 15 16 16 16 16 16 16 17 17 17 17 17 17 18 17 16 15 14 13 12 10 3 3 8 2 9 6 6 5 2 2 3 1 1 1 2 2 3 4 7 6 4
16 16 15 16 16 16 17 17 17 16 16 17 17 17 17 17 17 17 18 18 17 16 15 13 10 8 1 3 2 7 9 6 3 4 3 4 2 3 1 1 2 3 5 7 8 7 4
16 16 16 16 17 17 17 18 17 17 17 18 18 18 18 18 18 19 19 19 19 17 15 11 7 3 0 11 2 5 6 3 1 2 1 1 3 2 2 4 3 4 7 5 4 4 6
16 16 16 16 17 17 18 18 18 18 18 19 19 19 19 19 19 18 21 21 20 17 13 8 4 1 7 1 4 4 2 2 2 1 1 4 3 2 1 5 5 3 2 7 4 8 3
16 16 17 17 17 18 18 18 18 19 19 19 19 19 19 20 20 20 21 22 19 8 3 6 2 0 9 2 4 6 5 3 2 4 2 2 5 2 3 3 5 7 2 5 9 4 6
18 18 18 19 19 19 19 19 19 19 19 19 20 20 20 20 19 21 22 17 4 3 1 3 3 3 3 2 3 5 4 1 3 1 3 3 3 3 3 6 2 7 5 5 6 3 1
17 17 18 18 18 19 19 19 20 20 19 20 20 21 21 21 20 19 12 2 4 3 0 8 5 3 3 7 2 3 4 6 1 1 1 2 5 3 7 5 7 5 4 7 13 8 6
16 17 17 18 18 19 19 20 20 20 20 20 20 21 22 22 20 14 1 3 5 4 8 9 6 6 4 2 4 1 7 6 5 5 3 5 4 5 4 7 6 4 4 7 10 5 4
17 18 18 19 19 19 19 19 20 20 21 21 21 21 22 22 21 1 1 3 3 3 2 8 6 5 5 9 7 7 10 6 4 5 5 5 5 2 3 4 4 4 4 5 6 4 4
17 18 18 19 19 19 20 21 21 22 22 23 22 21 21 27 2 3 4 1 6 5 5 9 4 8 6 7 5 7 8 7 2 6 8 5 4 4 3 3 3 4 4 4 6 3 1
18 18 18 18 19 20 21 22 23 23 23 24 23 21 20 11 6 2 1 6 2 3 2 3 4 1 1 9 3 4 6 5 8 6 6 6 5 3 4 3 2 7 4 3 3 3 3
18 19 19 19 19 20 21 22 24 25 25 26 24 22 20 2 1 8 7 7 4 7 7 2 3 4 5 0 1 2 4 5 3 5 1 6 2 3 6 2 5 3 1 7 5 4 4
18 18 18 19 19 20 21 23 25 26 28 28 27 23 12 2 5 5 6 4 7 4 5 2 1 3 1 4 3 3 5 5 7 4 2 6 4 3 4 2 2 7 6 5 6 6 6
18 18 17 18 19 20 21 25 26 28 29 30 32 25 5 5 4 6 3 7 2 4 6 4 3 2 7 4 2 2 3 4 1 5 3 3 8 3 2 7 8 3 7 7 5 3 8
18 18 18 18 19 20 23 25 27 28 30 31 26 2 1 5 7 3 7 3 8 6 3 6 5 3 1 3 3 3 5 5 7 8 8 5 7 5 4 2 5 2 2 5 8 3 2
19 18 18 19 19 22 24 25 26 28 31 31 4 4 4 2 6 4 6 6 5 3 5 4 3 1 6 3 5 5 5 4 7 12 6 7 4 4 5 2 2 4 6 3 4 2 4
17 19 18 18 19 22 23 26 27 28 32 24 2 3 4 2 1 6 5 8 5 7 3 4 1 4 2 3 7 4 5 3 3 2 5 7 5 8 4 3 7 3 1 7 6 5 5
17 21 20 18 21 22 23 25 26 27 30 6 3 3 3 2 5 1 4 7 4 3 2 5 1 5 5 1 5 5 7 5 3 8 8 3 6 7 13 3 1 5 6 7 7 4 1
18 18 20 20 21 21 22 22 24 26 23 4 2 3 3 4 4 2 4 3 3 3 4 2 4 7 4 3 2 4 4 2 5 5 8 8 0 3 10 7 1 4 4 5 5 4 6
17 17 17 20 21 21 20 22 25 26 24 2 2 2 4 5 0 4 2 3 4 3 6 6 5 1 1 3 2 5 3 2 5 4 5 9 4 7 8 7 4 3 4 5 6 4 5
18 17 17 17 20 21 19 20 23 26 22 2 2 1 1 1 2 1 1 1 3 4 3 4 1 5 7 6 2 4 1 2 4 5 4 5 4 4 5 5 2 3 6 7 8 6 7
18 18 19 18 17 18 19 18 19 23 17 3 2 3 5 2 3 2 2 5 2 4 4 6 6 7 7 8 10 11 7 3 5 3 3 3 2 1 4 2 3 4 5 5 3 3 4
18 18 18 18 17 17 19 18 17 18 11 4 3 2 3 2 3 2 4 2 4 4 7 9 7 3 3 9 8 7 4 5 7 8 3 3 6 4 6 3 6 4 5 4 3 1 2
17 18 18 18 18 18 18 18 15 13 9 1 2 1 2 4 1 3 2 3 5 4 5 8 3 3 1 4 5 5 5 4 4 2 3 7 5 4 5 2 6 6 5 6 10 3 3
17 17 18 18 18 17 18 17 16 14 9 3 1 1 2 3 3 6 3 4 8 5 5 5 4 1 4 4 5 5 6 5 1 3 4 4 6 1 4 6 1 3 4 7 5 3 2
17 17 19 20 19 17 17 17 16 12 14 3 2 1 2 2 5 2 2 2 2 4 6 5 5 5 6 4 4 5 6 5 3 3 5 6 6 6 3 6 11 11 5 1 5 1 6
17 17 18 18 18 20 18 17 15 13 11 4 3 2 2 1 5 4 5 3 1 0 3 5 8 8 4 3 3 3 4 3 3 4 5 1 2 7 4 5 5 3 2 3 6 8 7
17 17 18 18 19 18 18 18 16 14 12 5 3 3 2 2 7 6 4 4 2 2 2 4 4 3 4 4 3 3 3 5 2 4 2 6 5 4 3 2 6 2 1 7 5 3 6
17 17 17 17 18 18 19 18 17 14 11 4 2 2 1 3 8 4 7 10 8 6 5 2 3 3 4 4 1 3 2 1 3 3 1 2 6 6 6 5 4 4 2 3 3 6 4
Wind_Direction
15 11 9 6 4 0 359 358 357 354 349 344 340 336 332 328 326 321 316 314 314 315 314 313 318 322 306 340 253 118 131 125 117 129 197 113 62 90 349 3 327 235 289 284 272 277 256
11 9 6 4 2 1 360 357 352 348 345 342 339 336 333 330 327 322 316 313 312 312 309 311 314 315 319 298 91 156 134 131 155 162 211 153 151 182 77 269 196 237 248 261 270 263 241
8 7 4 2 2 0 358 354 349 347 343 340 338 336 333 332 330 325 317 314 310 309 304 303 299 287 57 239 58 165 130 150 206 185 172 145 152 81 182 307 236 280 309 294 225 224 215
8 5 3 2 1 359 356 352 348 345 342 338 336 333 331 330 327 326 318 314 308 302 293 277 238 237 253 228 122 144 150 232 221 206 346 328 137 70 300 323 328 302 53 360 286 136 182
7 5 3 1 359 357 353 349 347 344 339 335 333 330 328 327 326 325 320 313 308 297 208 151 133 117 271 281 172 206 172 208 150 115 302 85 75 119 12 355 10 10 343 332 319 200 130
6 4 1 359 357 354 351 348 345 342 338 335 332 329 327 324 324 327 321 308 283 82 166 205 266 359 273 257 187 175 186 277 31 60 136 150 60 69 31 57 316 297 327 296 258 280 121
4 2 359 355 353 351 348 345 343 340 337 333 331 329 327 325 325 330 336 53 11 359 147 201 190 236 277 299 296 181 150 111 41 356 241 47 64 256 252 203 225 246 252 272 285 266 179
1 359 357 354 351 347 345 343 340 338 335 332 331 330 328 325 326 325 161 86 101 160 306 240 232 265 274 63 314 298 134 133 147 197 128 20 271 230 249 261 240 223 237 271 291 307 127
358 356 354 352 349 346 343 342 339 336 333 332 332 332 330 326 324 80 316 226 84 94 178 290 201 196 195 147 213 247 149 143 171 178 159 165 252 261 265 307 357 162 179 271 236 326 42
355 354 351 350 347 344 342 342 340 336 334 332 333 334 334 328 339 321 271 302 326 181 45 276 250 262 144 155 256 199 185 140 221 207 162 211 256 197 233 315 92 331 210 252 289 33 224
352 351 349 348 346 342 342 340 339 337 335 332 331 334 334 337 298 255 294 324 286 68 349 214 212 107 181 155 170 208 188 66 179 190 114 243 179 280 305 229 96 248 357 344 11 35 41
352 350 348 347 345 342 341 339 337 336 336 332 327 329 330 111 228 251 313 322 60 45 254 357 132 149 135 320 136 85 140 73 151 156 345 228 279 218 218 220 184 302 8 35 53 72 20
351 350 347 344 343 342 342 341 339 336 338 332 323 318 303 263 231 316 312 51 45 154 315 348 215 156 144 160 183 133 167 147 164 118 286 320 243 246 191 292 41 72 51 355 1 12 226
347 346 345 344 343 341 341 344 341 339 337 331 325 315 221 214 303 347 53 54 178 249 259 308 37 77 177 150 211 135 137 193 91 90 114 146 318 203 152 191 177 153 146 153 216 224 259
344 343 342 343 343 342 345 346 344 339 337 333 323 324 210 267 208 345 76 98 211 212 297 345 327 106 231 194 141 161 183 200 203 166 168 147 275 299 218 180 124 144 185 177 109 26 57
347 342 344 340 341 346 346 346 344 341 338 334 320 333 281 60 154 75 80 229 242 230 319 24 45 176 193 196 147 164 196 203 215 183 153 212 309 239 294 122 48 141 158 64 27 209 251
342 344 341 341 343 347 346 346 346 345 340 330 7 28 312 47 61 53 164 226 264 252 238 17 283 308 265 194 176 183 217 283 191 85 149 135 130 258 65 191 189 37 332 49 112 135 168
340 349 344 342 347 346 349 346 348 350 341 27 357 58 319 31 63 25 169 198 233 280 320 283 211 226 234 193 195 207 207 224 34 157 144 195 145 239 231 254 158 154 199 134 125 227 164
341 347 349 346 347 348 347 346 350 351 354 327 29 270 328 66 138 265 275 271 247 254 237 238 260 207 184 211 221 202 219 278 356 147 164 177 353 11 341 355 7 155 164 110 111 80 194
340 342 346 350 349 348 345 347 350 349 348 115 15 36 334 54 296 126 64 311 309 248 249 216 254 137 341 280 216 209 190 237 348 72 67 95 124 159 193 213 164 159 183 161 131 125 182
341 346 344 347 349 350 350 350 351 349 348 82 27 302 191 247 310 54 204 28 275 300 254 211 212 228 182 216 163 237 247 314 5 347 88 108 176 185 249 239 256 225 225 184 188 190 167
342 345 346 345 343 344 351 351 351 352 348 56 38 18 357 290 292 206 180 203 237 279 215 254 212 250 188 201 188 201 171 207 197 3 69 14 189 109 278 319 167 255 255 168 149 162 104
345 343 342 343 345 345 351 355 358 359 7 31 329 316 115 288 325 126 217 198 253 5 270 242 240 316 212 233 204 216 190 160 184 150 134 113 131 104 260 339 339 306 213 187 129 15 167
346 343 344 344 345 346 351 355 0 5 28 319 268 322 57 275 280 227 339 343 271 239 250 298 318 189 7 303 125 58 61 77 129 221 108 136 133 138 210 20 248 265 265 129 117 48 39
341 341 341 343 343 345 348 351 355 360 9 346 276 91 90 275 249 296 268 254 301 290 231 239 296 86 294 46 59 39 346 10 245 174 178 140 124 193 169 188 149 316 207 178 155 220 284
334 338 339 342 344 343 344 346 350 355 358 356 264 213 112 93 250 303 317 307 281 310 325 276 320 318 54 81 82 151 197 204 266 352 62 71 71 130 132 175 201 214 172 53 127 259 203
333 334 336 337 338 341 342 342 342 348 353 351 272 222 101 221 268 173 220 227 191 140 246 308 338 355 27 73 96 155 226 194 202 198 211 50 50 166 174 229 285 232 263 147 163 232 155
331 333 335 334 336 337 336 339 341 345 349 3 277 224 135 233 273 216 238 229 307 139 183 289 16 339 25 66 129 209 165 224 163 228 194 195 162 190 111 107 248 85 53 173 192 89 137
326 327 329 331 334 332 331 331 332 334 336 23 290 325 26 195 252 242 233 228 215 194 125 318 208 236 205 93 178 120 206 117 151 247 72 250 185 177 175 200 264 285 118 99 126 130 155